User: anonymous   Login
Location: Unspecified
(0.0000°N, 0.0000°E)
Time: 06:48:14
(UTC+00:00)
Language:

TURKSAT 3U - Orbit

View from above orbital plane
View from above orbital plane
View from above satellite
View from above satellite

Ground track
Ground track

The orbit data is extracted from the following two-line orbital elements,

1 39152U 13018C   17087.83211376 +.00000450 +00000-0 +66092-4 0  9993
2 39152 097.9483 175.8671 0015693 305.9038 054.0717 14.80223801211680
Epoch (UTC): 28 March 2017 19:58:14
Eccentricity: 0.0015693
inclination: 97.9483°
perigee height: 617 km
apogee height: 639 km
right ascension of ascending node: 175.8671°
argument of perigee: 305.9038°
revolutions per day: 14.80223801
mean anomaly at epoch: 54.0717°
orbit number at epoch: 21168

The dashed part of the orbit path shows where the satellite is in the earth's shadow,  

DLR